TimeAKDT,TemperatureF,Dew PointF,Humidity,Sea Level PressureIn,VisibilityMPH,Wind Direction,Wind SpeedMPH,Gust SpeedMPH,PrecipitationIn,Events,Conditions,WindDirDegrees,DateUTC
12:53 AM,9.0,6.1,88,30.01,10.0,Calm,Calm,-,N/A,,Clear,0,2012-10-29 08:53:00
1:53 AM,8.1,6.1,92,30.01,10.0,Calm,Calm,-,N/A,,Clear,0,2012-10-29 09:53:00
2:53 AM,8.1,6.1,92,30.00,10.0,Calm,Calm,-,N/A,,Clear,0,2012-10-29 10:53:00
3:53 AM,8.1,6.1,92,29.99,10.0,WSW,3.5,-,N/A,,Clear,240,2012-10-29 11:53:00
4:53 AM,10.0,8.1,92,29.98,10.0,WSW,3.5,-,N/A,,Clear,250,2012-10-29 12:53:00
5:53 AM,14.0,12.9,95,29.97,10.0,Calm,Calm,-,N/A,,Clear,0,2012-10-29 13:53:00
6:53 AM,15.1,12.9,91,29.95,10.0,Variable,4.6,-,N/A,,Clear,0,2012-10-29 14:53:00
7:53 AM,24.1,19.9,84,29.93,10.0,East,9.2,-,N/A,,Clear,100,2012-10-29 15:53:00
8:53 AM,30.9,24.1,76,29.92,10.0,East,11.5,-,N/A,,Clear,80,2012-10-29 16:53:00
9:53 AM,30.9,24.1,76,29.91,10.0,ENE,10.4,-,N/A,,Clear,70,2012-10-29 17:53:00
10:53 AM,21.0,17.1,85,29.91,10.0,Calm,Calm,-,N/A,,Clear,0,2012-10-29 18:53:00
11:53 AM,30.0,23.0,75,29.91,10.0,Variable,5.8,-,N/A,,Clear,0,2012-10-29 19:53:00
12:53 PM,21.9,18.0,85,29.90,10.0,Calm,Calm,-,N/A,,Clear,0,2012-10-29 20:53:00
1:53 PM,33.1,25.0,72,29.88,10.0,East,9.2,-,N/A,,Clear,90,2012-10-29 21:53:00
2:53 PM,33.1,24.1,70,29.86,10.0,ESE,6.9,-,N/A,,Clear,110,2012-10-29 22:53:00
3:53 PM,32.0,25.0,75,29.85,10.0,East,6.9,-,N/A,,Clear,100,2012-10-29 23:53:00
4:53 PM,32.0,24.1,73,29.84,10.0,East,8.1,-,N/A,,Overcast,90,2012-10-30 00:53:00
5:53 PM,28.9,25.0,85,29.83,10.0,WNW,3.5,-,N/A,,Overcast,300,2012-10-30 01:53:00
6:53 PM,28.0,24.1,85,29.81,10.0,Calm,Calm,-,N/A,,Overcast,0,2012-10-30 02:53:00
7:53 PM,27.0,24.1,89,29.80,10.0,WNW,3.5,-,N/A,,Overcast,290,2012-10-30 03:53:00
8:53 PM,26.1,24.1,92,29.79,10.0,Calm,Calm,-,N/A,,Overcast,0,2012-10-30 04:53:00
9:53 PM,25.0,24.1,96,29.78,10.0,West,3.5,-,N/A,,Overcast,280,2012-10-30 05:53:00
10:53 PM,23.0,21.9,96,29.78,10.0,Calm,Calm,-,N/A,,Mostly Cloudy,0,2012-10-30 06:53:00
11:53 PM,21.9,21.0,96,29.77,10.0,Calm,Calm,-,N/A,,Partly Cloudy,0,2012-10-30 07:53:00